[[{"header":{"parameterUnit":"m.s-1","parameterCategory":1,"la1":30.2991,"la2":30.254,"lo1":-89.0895,"lo2":-89.0444,"dy":0.0017,"dx":0.0017,"nx":28,"ny":28,"refTime":"2024-07-11T03:00:00:Z","depth":0,"parameterNumber":2,"parameterNumberName":"U-component_of_WINDS"},"data":[0,0,0,0,0,0,0,0,0,0,0,0,0,0,0,0,0,0,0,0,0,0,0,0,0,0,0,0,0,0,0,0,0,0,0,0,0,0,0,0,0,0,0,0,0,0,0,0,0,0,0,0,0,0,0,0,0,0,-0.4234,-0.4233,0,-0.4163,-0.4162,-0.4161,-0.4175,-0.4176,-0.4178,-0.4179,-0.4098,-0.4095,-0.4092,0,0,0,0,0,0,0,0,0,0,0,0,0,-0.4375,-0.4373,-0.4234,-0.4233,-0.4232,-0.4163,-0.4162,-0.4161,-0.4175,-0.4176,-0.4178,-0.418,-0.41,-0.4096,-0.4092,0,0,0,0,0,0,0,0,0,0,0,0,0,-0.431,-0.4372,-0.4234,-0.4231,-0.423,-0.4163,-0.4162,-0.4161,-0.4174,-0.4176,-0.4178,-0.418,-0.4101,-0.4096,-0.4091,-0.402,0,0,-0.4076,-0.4073,0,0,0,0,0,0,0,0,-0.4314,-0.4305,-0.4232,-0.4231,-0.423,-0.418,-0.4182,-0.4113,-0.4174,-0.4195,-0.4179,-0.4181,-0.4123,-0.4117,-0.4099,-0.4017,-0.4013,-0.4075,-0.4072,-0.407,-0.4068,0,0,0,0,0,0,0,-0.4318,-0.4308,-0.4205,-0.4231,-0.4229,-0.4231,-0.4224,-0.4169,-0.4149,-0.4194,-0.4194,-0.4186,-0.4123,-0.4104,-0.4097,-0.4012,-0.4075,-0.4071,-0.4068,-0.4066,-0.3869,-0.3866,0,0,0,0,0,0,-0.4325,-0.4311,-0.4208,-0.4203,-0.4278,-0.4227,-0.4219,-0.4194,-0.415,-0.4145,-0.4185,-0.4187,-0.4111,-0.4103,-0.4094,-0.4008,-0.407,-0.4065,-0.4062,-0.3871,-0.3868,-0.3866,0,0,0,0,0,0,-0.4328,-0.4315,-0.421,-0.4258,-0.4244,-0.4222,-0.4194,-0.4191,-0.4172,-0.4143,-0.4139,-0.4169,-0.4112,-0.4101,-0.4039,-0.4006,-0.4063,-0.4058,-0.3873,-0.387,-0.3867,-0.3836,0,0,0,0,0,0,-0.4332,-0.4316,-0.429,-0.4257,-0.4242,-0.4158,-0.4192,-0.4188,-0.4164,-0.4167,-0.4127,-0.4122,-0.4113,-0.4047,-0.4034,-0.4,-0.4054,-0.3876,-0.3872,-0.3868,-0.384,-0.3832,-0.3826,0,0,0,0,0,-0.4337,-0.4283,-0.4289,-0.4276,-0.421,-0.4156,-0.4147,-0.414,-0.4161,-0.4134,-0.4116,-0.4123,-0.4012,-0.404,-0.4026,-0.399,-0.3878,-0.3873,-0.3868,-0.3843,-0.3834,-0.3826,0,0,0,0,0,0,-0.431,-0.4278,-0.4285,-0.4219,-0.4191,-0.4159,-0.4124,-0.413,-0.4093,-0.4097,-0.4088,-0.4079,-0.4015,-0.3997,-0.4029,-0.3919,-0.3948,-0.394,-0.3934,-0.3924,-0.3917,-0.3922,-0.405,0,0,0,0,0,-0.4297,-0.4259,-0.4232,-0.4177,-0.4163,-0.4146,-0.4123,-0.412,-0.4089,-0.4076,-0.4053,-0.4021,-0.3979,-0.3951,-0.391,-0.3839,-0.3829,-0.3807,-0.3799,-0.3794,-0.3786,-0.3746,-0.3735,-0.3849,-0.3849,-0.3849,0,0,-0.4268,-0.4246,-0.4222,-0.4171,-0.4149,-0.4107,-0.4136,-0.409,-0.4059,-0.4069,-0.4009,-0.3991,-0.3955,-0.3888,-0.3857,-0.387,-0.3753,-0.3787,-0.3783,-0.3778,-0.374,-0.3729,-0.3719,-0.3846,-0.3847,-0.3847,0,0,-0.4195,-0.4175,-0.4127,-0.4105,-0.4072,-0.4062,-0.4051,-0.4018,-0.4008,-0.3949,-0.3955,-0.3917,-0.3845,-0.3818,-0.3795,-0.3715,-0.372,-0.3702,-0.3663,-0.3624,-0.3615,-0.3607,-0.3577,-0.3566,-0.3695,-0.3695,-0.3695,0,-0.4163,-0.4103,-0.4101,-0.4055,-0.4032,-0.4043,-0.3993,-0.3971,-0.3925,-0.3907,-0.3924,-0.3835,-0.381,-0.3737,-0.3718,-0.37,-0.3684,-0.3705,-0.3617,-0.3609,-0.3601,-0.3572,-0.3561,-0.3693,-0.3693,-0.3693,-0.3694,0,-0.4064,-0.4023,-0.3987,-0.3946,-0.3919,-0.3872,-0.3861,-0.3833,-0.3834,-0.3821,-0.3761,-0.3733,-0.3687,-0.367,-0.3669,-0.3597,-0.3606,-0.362,-0.3648,-0.3589,-0.3561,-0.355,-0.369,-0.3691,-0.3691,-0.3692,0,0,-0.3969,-0.393,-0.3917,-0.3898,-0.3864,-0.3831,-0.3783,-0.3742,-0.3718,-0.3687,-0.3645,-0.3585,-0.3599,-0.3573,-0.3569,-0.3535,-0.3472,-0.3553,-0.3552,-0.3538,-0.3389,-0.3377,-0.3365,-0.3477,-0.3475,-0.3473,-0.3392,0,-0.3891,-0.3811,-0.3808,-0.3733,-0.3694,-0.3705,-0.3664,-0.3637,-0.3625,-0.3589,-0.3574,-0.3531,-0.3553,-0.3538,-0.3505,-0.3487,-0.3442,-0.3493,-0.3436,-0.3434,-0.3443,-0.3351,-0.3338,-0.3262,-0.3381,-0.338,-0.3378,0,-0.3789,-0.3758,-0.368,-0.3653,-0.3636,-0.3599,-0.3561,-0.3527,-0.3497,-0.349,-0.3463,-0.3464,-0.3414,-0.3447,-0.3376,-0.3411,-0.3388,-0.3376,-0.3373,-0.3365,-0.3401,-0.3338,-0.3238,-0.3226,-0.3362,-0.3363,-0.3364,0,-0.3726,-0.3664,-0.361,-0.3594,-0.3561,-0.3534,-0.3519,-0.3491,-0.3467,-0.3433,-0.3416,-0.3376,-0.3354,-0.3322,-0.3312,-0.3336,-0.3242,-0.3273,-0.3233,-0.3233,-0.321,-0.3211,-0.3102,-0.3198,-0.3199,-0.3199,-0.3199,0,-0.3638,-0.359,-0.3581,-0.3547,-0.3493,-0.3491,-0.3436,-0.3422,-0.3398,-0.336,-0.3367,-0.3331,-0.3321,-0.3283,-0.3275,-0.3217,-0.3207,-0.3199,-0.3197,-0.3197,-0.3198,-0.318,-0.3184,-0.3196,-0.3197,-0.3197,-0.3198,0,-0.3557,-0.355,-0.3491,-0.3466,-0.3458,-0.3419,-0.3396,-0.3363,-0.3353,-0.3305,-0.3293,-0.3276,-0.3232,-0.322,-0.3166,-0.316,-0.3092,-0.3096,-0.3103,-0.3102,-0.3062,-0.3065,-0.2936,-0.2918,-0.3028,-0.3027,-0.3026,0,-0.35,-0.3464,-0.3436,-0.3412,-0.3396,-0.3358,-0.3334,-0.333,-0.3304,-0.3269,-0.3239,-0.3196,-0.3161,-0.3089,-0.3071,-0.3029,-0.3031,-0.2989,-0.3024,-0.3026,-0.3028,-0.3029,-0.3025,-0.2981,-0.2979,-0.2979,-0.2978,0,-0.34,-0.3399,-0.3365,-0.333,-0.3302,-0.3274,-0.3246,-0.3226,-0.3219,-0.3189,-0.3145,-0.3119,-0.3065,-0.3021,-0.298,-0.2962,-0.2967,-0.2968,-0.2956,-0.2954,-0.2959,-0.2954,-0.3082,-0.2969,-0.297,-0.2971,-0.2971,-0.2972,-0.3328,-0.3296,-0.3272,-0.3234,-0.3214,-0.3189,-0.3157,-0.3144,-0.3108,-0.3066,-0.3066,-0.3018,-0.2989,-0.2935,-0.2914,-0.2875,-0.2887,-0.2871,-0.2866,-0.2861,-0.2857,-0.2968,-0.2868,-0.2868,-0.2868,-0.2868,-0.2869,0,-0.3227,-0.3213,-0.3178,-0.3142,-0.3111,-0.3124,-0.3095,-0.3068,-0.3026,-0.3,-0.2967,-0.2916,-0.2875,-0.2854,-0.2812,-0.2785,-0.2786,-0.2774,-0.2774,-0.277,-0.2849,-0.2863,-0.2773,-0.2773,-0.2773,-0.2773,-0.2773,-0.2773,-0.3171,-0.3118,-0.3114,-0.305,-0.3035,-0.299,-0.2972,-0.2949,-0.2928,-0.2872,-0.2839,-0.2827,-0.2803,-0.276,-0.2721,-0.2716,-0.2699,-0.2685,-0.2681,-0.2755,-0.2764,-0.2773,-0.2786,-0.2682,-0.2682,-0.2605,-0.2604,-0.2603]},{"header":{"parameterUnit":"m.s-1","parameterCategory":1,"la1":30.2991,"la2":30.254,"lo1":-89.0895,"lo2":-89.0444,"dy":0.0017,"dx":0.0017,"nx":28,"ny":28,"refTime":"2024-07-11T03:00:00:Z","depth":0,"parameterNumber":3,"parameterNumberName":"V-component_of_WINDS"},"data":[0,0,0,0,0,0,0,0,0,0,0,0,0,0,0,0,0,0,0,0,0,0,0,0,0,0,0,0,0,0,0,0,0,0,0,0,0,0,0,0,0,0,0,0,0,0,0,0,0,0,0,0,0,0,0,0,0,0,2.7241,2.724,0,2.7156,2.7155,2.7154,2.7104,2.7104,2.7104,2.7103,2.7008,2.7005,2.7003,0,0,0,0,0,0,0,0,0,0,0,0,0,2.7354,2.7352,2.7241,2.724,2.7239,2.7156,2.7155,2.7154,2.7104,2.7104,2.7104,2.7103,2.7008,2.7006,2.7003,0,0,0,0,0,0,0,0,0,0,0,0,0,2.729,2.7351,2.7241,2.7205,2.72,2.7156,2.7155,2.7153,2.7104,2.7104,2.7104,2.7103,2.7009,2.7006,2.7002,2.6986,0,0,2.6991,2.699,0,0,0,0,0,0,0,0,2.7294,2.7286,2.7211,2.7207,2.7202,2.7141,2.7159,2.7097,2.7104,2.714,2.7103,2.7103,2.7051,2.7044,2.7029,2.6981,2.6977,2.6991,2.6989,2.6987,2.6986,0,0,0,0,0,0,0,2.7298,2.7289,2.7207,2.721,2.7205,2.719,2.718,2.7147,2.7098,2.7137,2.7133,2.7124,2.7049,2.7032,2.7026,2.6976,2.6991,2.6988,2.6986,2.6984,2.691,2.691,0,0,0,0,0,0,2.731,2.7293,2.721,2.7205,2.7249,2.7188,2.7178,2.716,2.7098,2.7089,2.7125,2.7122,2.7039,2.703,2.7022,2.6999,2.6987,2.6984,2.6982,2.691,2.691,2.691,0,0,0,0,0,0,2.7312,2.7303,2.7213,2.7248,2.7236,2.7186,2.7168,2.7159,2.7142,2.7089,2.7079,2.7117,2.7038,2.7028,2.6996,2.6995,2.6982,2.6979,2.691,2.691,2.691,2.6953,0,0,0,0,0,0,2.7316,2.7304,2.7299,2.7248,2.7234,2.7191,2.7168,2.7157,2.7137,2.7133,2.708,2.707,2.7037,2.7001,2.6992,2.699,2.6976,2.6909,2.691,2.691,2.6951,2.6954,2.6957,0,0,0,0,0,2.732,2.7312,2.7299,2.7289,2.7227,2.7191,2.7182,2.7146,2.7138,2.7131,2.7097,2.7072,2.6997,2.6999,2.6988,2.6985,2.6909,2.691,2.691,2.695,2.6954,2.6957,0,0,0,0,0,0,2.736,2.7305,2.7289,2.7266,2.7234,2.7182,2.7173,2.7152,2.7119,2.7117,2.7071,2.7059,2.7032,2.7005,2.7008,2.6965,2.695,2.6948,2.6984,2.6987,2.699,2.6997,2.6973,0,0,0,0,0,2.7367,2.7345,2.7296,2.728,2.7265,2.7222,2.7205,2.7181,2.7144,2.7129,2.7093,2.7057,2.7025,2.7004,2.6972,2.6947,2.6934,2.6939,2.6942,2.6945,2.6944,2.6928,2.693,2.6911,2.6911,2.6911,0,0,2.738,2.7347,2.7335,2.7287,2.726,2.7236,2.7211,2.7186,2.7167,2.7125,2.7094,2.7066,2.7022,2.6994,2.6979,2.697,2.6946,2.6946,2.6948,2.6945,2.6929,2.6931,2.6932,2.6912,2.6912,2.6912,0,0,2.7391,2.7364,2.7348,2.7321,2.7281,2.7253,2.7249,2.7201,2.7182,2.7151,2.7119,2.7094,2.704,2.7011,2.6988,2.699,2.6965,2.698,2.6995,2.6981,2.6982,2.6984,2.6984,2.6984,2.6979,2.6979,2.6979,0,2.741,2.7376,2.7341,2.7319,2.7299,2.7263,2.7245,2.722,2.717,2.7156,2.7147,2.708,2.7047,2.7012,2.7013,2.6996,2.6989,2.6986,2.6986,2.6986,2.6987,2.6986,2.6987,2.6981,2.6981,2.6981,2.6981,0,2.7402,2.7378,2.7369,2.7326,2.7304,2.7284,2.7245,2.7227,2.7205,2.7177,2.7145,2.7105,2.7065,2.7055,2.7031,2.7016,2.7011,2.6995,2.6979,2.6991,2.699,2.699,2.6984,2.6983,2.6983,2.6982,0,0,2.7435,2.7374,2.7372,2.7352,2.7305,2.7285,2.7262,2.7226,2.7211,2.7178,2.7157,2.7114,2.7099,2.7074,2.7046,2.7034,2.7037,2.7018,2.7017,2.7023,2.7017,2.703,2.7031,2.7021,2.7021,2.7021,2.7021,0,2.7438,2.7401,2.7369,2.7342,2.7319,2.7285,2.7265,2.7234,2.7207,2.7182,2.7151,2.7121,2.7103,2.7088,2.7074,2.704,2.7035,2.704,2.7,2.6999,2.7012,2.703,2.7043,2.7045,2.702,2.702,2.702,0,2.7438,2.741,2.7381,2.7338,2.7327,2.7311,2.7275,2.7252,2.7215,2.7196,2.7169,2.7142,2.7115,2.7102,2.7064,2.7067,2.7049,2.703,2.7029,2.7023,2.701,2.7025,2.7045,2.7045,2.7019,2.7019,2.7019,0,2.7465,2.7419,2.7396,2.738,2.7329,2.7319,2.7296,2.7259,2.724,2.7207,2.7194,2.7158,2.7138,2.711,2.7073,2.7067,2.7038,2.7022,2.702,2.7021,2.7014,2.7015,2.7032,2.7003,2.7003,2.7003,2.7003,0,2.7472,2.7455,2.7408,2.7394,2.7374,2.7338,2.7318,2.7293,2.726,2.7239,2.7206,2.7186,2.7139,2.7112,2.7082,2.7055,2.7046,2.7028,2.7021,2.7031,2.7034,2.7018,2.7017,2.7003,2.7003,2.7003,2.7003,0,2.7498,2.7466,2.7439,2.7394,2.7382,2.737,2.733,2.7314,2.7287,2.726,2.7251,2.7207,2.7174,2.7135,2.7089,2.7069,2.7044,2.7032,2.7057,2.7053,2.7053,2.7054,2.706,2.7059,2.7032,2.7032,2.7033,0,2.7505,2.7492,2.7447,2.7432,2.7412,2.7388,2.7369,2.7332,2.7313,2.727,2.7259,2.7225,2.7196,2.7145,2.7106,2.7071,2.7058,2.7063,2.7052,2.7063,2.7058,2.7059,2.7057,2.7065,2.7066,2.7066,2.7066,0,2.752,2.7505,2.7481,2.7451,2.743,2.7403,2.7375,2.7364,2.7321,2.73,2.7269,2.7247,2.7201,2.7167,2.7127,2.7101,2.7076,2.707,2.7068,2.7078,2.7094,2.7086,2.7065,2.707,2.707,2.7069,2.7069,2.7069,2.7536,2.7524,2.7491,2.7464,2.744,2.7415,2.7399,2.737,2.7344,2.7307,2.7286,2.7255,2.7217,2.7162,2.7137,2.711,2.7101,2.7097,2.7096,2.7096,2.7099,2.7099,2.7102,2.7102,2.7102,2.7102,2.7102,0,2.755,2.7528,2.7504,2.7468,2.7447,2.7429,2.7397,2.738,2.7354,2.7323,2.7296,2.7259,2.7226,2.7186,2.715,2.7137,2.7124,2.7128,2.7128,2.7123,2.7109,2.7115,2.7139,2.7139,2.7139,2.7139,2.7139,2.7139,2.7554,2.7533,2.7514,2.7479,2.7456,2.7428,2.7412,2.7388,2.7363,2.7325,2.7299,2.7275,2.7239,2.7201,2.7169,2.7158,2.7146,2.7154,2.7139,2.7127,2.7124,2.7121,2.7126,2.7151,2.7151,2.7155,2.7155,2.7155]}]]